Weather History for Bentonville, AR

Change the Weather History Date:

Friday, June 21, 2013

  Actual Average Record
Temperature  
Mean Temperature 81 °F -  
Max Temperature 89 °F 86 °F 99 °F (1953)
Min Temperature 73 °F 62 °F 50 °F (1961)
Cooling Degree Days 16    
Growing Degree Days 31 (Base 50)    
Moisture  
Dew Point 70 °F    
Average Humidity 67    
Maximum Humidity 88    
Minimum Humidity 49    
Precipitation  
Precipitation 0.00 in - - ()
Sea Level Pressure  
Sea Level Pressure 30.06 in    
Wind  
Wind Speed 9 mph (South)    
Max Wind Speed 15 mph    
Max Gust Speed 21 mph    
Visibility 10 miles    
Events      
Averages and records for this station are not official NWS values.
T = Trace of Precipitation, MM = Missing Value Source: NWS Daily Summary

Daily Weather History Graph

Daily Weather History Graph

Search for Another Location

Airport:

Trip Planner

Search our weather history database for the weather conditions in past years. The results will help you decide how hot, cold, wet, or windy it might be!

Date:

Astronomy

Jun. 21, 2013 Rise Set
Actual Time 5:59 AM CDT 8:37 PM CDT
Civil Twilight 5:29 AM CDT 9:08 PM CDT
Nautical Twilight 4:51 AM CDT 9:46 PM CDT
Astronomical Twilight 4:08 AM CDT 10:28 PM CDT
Moon 6:51 PM CDT (6/21) 4:13 AM CDT (6/21)
Length of Visible Light 15h 39m
Length of Day
14h 38m
Waxing Gibbous, 95% of the Moon is Illuminated
Jun 21
Waxing Gibbous
Jun 23
Full
Jun 29
Last Quarter
Jul 8
New
Jul 15
First Quarter

Hourly Weather History & Observations

Time (CDT) Temp. Heat Index Dew Point Humidity Pressure Visibility Wind Dir Wind Speed Gust Speed Precip Events Conditions
12:15 AM 77.0 °F - 69.8 °F 78% 30.07 in 10.0 mi SSE 8.1 mph - N/A   Clear
12:35 AM 77.0 °F - 69.8 °F 78% 30.07 in 10.0 mi South 6.9 mph - N/A   Clear
12:55 AM 77.0 °F - 69.8 °F 78% 30.07 in 10.0 mi SSE 9.2 mph - N/A   Clear
1:15 AM 77.0 °F - 69.8 °F 78% 30.07 in 10.0 mi SE 6.9 mph - N/A   Clear
1:35 AM 75.2 °F - 69.8 °F 83% 30.08 in 10.0 mi SE 6.9 mph - N/A   Clear
1:55 AM 75.2 °F - 69.8 °F 83% 30.07 in 10.0 mi SE 8.1 mph - N/A   Clear
2:55 AM 73.4 °F - 69.8 °F 88% 30.06 in 10.0 mi SE 5.8 mph - N/A   Clear
3:15 AM 73.4 °F - 69.8 °F 88% 30.06 in 10.0 mi SSE 4.6 mph - N/A   Clear
3:35 AM 73.4 °F - 69.8 °F 88% 30.05 in 10.0 mi SSE 5.8 mph - N/A   Clear
3:55 AM 73.4 °F - 69.8 °F 88% 30.06 in 10.0 mi SSE 5.8 mph - N/A   Clear
4:15 AM 73.4 °F - 69.8 °F 88% 30.05 in 10.0 mi SSE 6.9 mph - N/A   Clear
4:35 AM 73.4 °F - 69.8 °F 88% 30.06 in 10.0 mi South 6.9 mph - N/A   Clear
4:55 AM 75.2 °F - 69.8 °F 83% 30.05 in 10.0 mi South 6.9 mph - N/A   Clear
5:16 AM 75.2 °F - 69.8 °F 83% 30.05 in 10.0 mi South 5.8 mph - N/A   Clear
5:35 AM 75.2 °F - 69.8 °F 83% 30.06 in 10.0 mi South 8.1 mph - N/A   Clear
5:55 AM 75.2 °F - 69.8 °F 83% 30.06 in 10.0 mi South 8.1 mph - N/A   Clear
6:15 AM 75.2 °F - 69.8 °F 83% 30.07 in 10.0 mi South 8.1 mph - N/A   Clear
6:35 AM 75.2 °F - 69.8 °F 83% 30.07 in 10.0 mi South 8.1 mph - N/A   Clear
6:55 AM 75.2 °F - 69.8 °F 83% 30.07 in 10.0 mi South 8.1 mph - N/A   Clear
7:15 AM 75.2 °F - 69.8 °F 83% 30.07 in 10.0 mi South 8.1 mph - N/A   Clear
7:35 AM 77.0 °F - 69.8 °F 78% 30.08 in 10.0 mi South 9.2 mph - N/A   Clear
7:55 AM 78.8 °F - 69.8 °F 74% 30.09 in 10.0 mi South 11.5 mph - N/A   Clear
8:15 AM 78.8 °F - 69.8 °F 74% 30.09 in 10.0 mi South 8.1 mph - N/A   Clear
8:55 AM 80.6 °F 84.6 °F 71.6 °F 74% 30.09 in 10.0 mi South 11.5 mph 16.1 mph N/A   Clear
9:15 AM 82.4 °F 86.3 °F 69.8 °F 66% 30.09 in 10.0 mi South 12.7 mph 20.7 mph N/A   Clear
9:35 AM 82.4 °F 87.2 °F 71.6 °F 70% 30.09 in 10.0 mi South 12.7 mph 18.4 mph N/A   Clear
9:55 AM 82.4 °F 86.3 °F 69.8 °F 66% 30.10 in 10.0 mi South 12.7 mph 19.6 mph N/A   Clear
10:15 AM 84.2 °F 89.6 °F 71.6 °F 66% 30.10 in 10.0 mi South 11.5 mph 18.4 mph N/A   Clear
10:35 AM 84.2 °F 89.6 °F 71.6 °F 66% 30.10 in 10.0 mi South 13.8 mph 17.3 mph N/A   Clear
10:56 AM 86.0 °F 91.8 °F 71.6 °F 62% 30.11 in 10.0 mi SSW 11.5 mph - N/A   Clear
11:15 AM 86.0 °F 90.4 °F 69.8 °F 58% 30.11 in 10.0 mi SSW 11.5 mph 18.4 mph N/A   Clear
11:35 AM 87.8 °F 92.6 °F 69.8 °F 55% 30.11 in 10.0 mi SW 11.5 mph 16.1 mph N/A   Clear
11:56 AM 87.8 °F 93.8 °F 71.6 °F 58% 30.11 in 10.0 mi SSW 13.8 mph 18.4 mph N/A   Clear
12:15 PM 87.8 °F 93.8 °F 71.6 °F 58% 30.11 in 10.0 mi SSW 10.4 mph 20.7 mph N/A   Partly Cloudy
12:35 PM 87.8 °F 93.8 °F 71.6 °F 58% 30.11 in 10.0 mi SSW 12.7 mph 20.7 mph N/A   Clear
12:55 PM 87.8 °F 92.6 °F 69.8 °F 55% 30.10 in 10.0 mi SSW 15.0 mph - N/A   Clear
1:15 PM 89.6 °F 94.7 °F 69.8 °F 52% 30.09 in 10.0 mi SSW 12.7 mph 19.6 mph N/A   Partly Cloudy
1:35 PM 89.6 °F 94.7 °F 69.8 °F 52% 30.09 in 10.0 mi SSW 10.4 mph - N/A   Scattered Clouds
1:55 PM 89.6 °F 94.7 °F 69.8 °F 52% 30.09 in 10.0 mi South 11.5 mph 18.4 mph N/A   Scattered Clouds
2:15 PM 89.6 °F 96.2 °F 71.6 °F 55% 30.08 in 10.0 mi SSW 11.5 mph - N/A   Partly Cloudy
2:35 PM 89.6 °F 96.2 °F 71.6 °F 55% 30.08 in 10.0 mi SSW 11.5 mph - N/A   Scattered Clouds
2:55 PM 87.8 °F 92.6 °F 69.8 °F 55% 30.08 in 10.0 mi South 9.2 mph 17.3 mph N/A   Mostly Cloudy
3:15 PM 89.6 °F 94.7 °F 69.8 °F 52% 30.07 in 10.0 mi SSW 13.8 mph 19.6 mph N/A   Scattered Clouds
3:35 PM 89.6 °F 94.7 °F 69.8 °F 52% 30.06 in 10.0 mi South 12.7 mph 19.6 mph N/A   Partly Cloudy
3:55 PM 89.6 °F 94.7 °F 69.8 °F 52% 30.06 in 10.0 mi SSE 12.7 mph 20.7 mph N/A   Partly Cloudy
4:15 PM 89.6 °F 94.7 °F 69.8 °F 52% 30.06 in 10.0 mi South 12.7 mph 18.4 mph N/A   Clear
4:35 PM 89.6 °F 94.7 °F 69.8 °F 52% 30.05 in 10.0 mi South 13.8 mph 19.6 mph N/A   Scattered Clouds
4:55 PM 89.6 °F 94.7 °F 69.8 °F 52% 30.04 in 10.0 mi South 12.7 mph 19.6 mph N/A   Partly Cloudy
5:15 PM 89.6 °F 94.7 °F 69.8 °F 52% 30.04 in 10.0 mi South 12.7 mph 18.4 mph N/A   Partly Cloudy
5:35 PM 89.6 °F 93.4 °F 68.0 °F 49% 30.04 in 10.0 mi South 12.7 mph 17.3 mph N/A   Clear
5:55 PM 89.6 °F 94.7 °F 69.8 °F 52% 30.03 in 10.0 mi South 11.5 mph 17.3 mph N/A   Clear
6:15 PM 89.6 °F 94.7 °F 69.8 °F 52% 30.03 in 10.0 mi South 10.4 mph - N/A   Clear
6:35 PM 89.6 °F 94.7 °F 69.8 °F 52% 30.03 in 10.0 mi South 10.4 mph - N/A   Scattered Clouds
6:55 PM 87.8 °F 92.6 °F 69.8 °F 55% 30.03 in 10.0 mi SSW 10.4 mph - N/A   Partly Cloudy
7:15 PM 87.8 °F 91.4 °F 68.0 °F 52% 30.03 in 10.0 mi South 8.1 mph - N/A   Mostly Cloudy
7:35 PM 84.2 °F 87.3 °F 68.0 °F 58% 30.03 in 10.0 mi South 8.1 mph - N/A   Partly Cloudy
7:55 PM 84.2 °F 87.3 °F 68.0 °F 58% 30.03 in 10.0 mi South 6.9 mph - N/A   Clear
8:15 PM 82.4 °F 85.4 °F 68.0 °F 62% 30.03 in 10.0 mi South 6.9 mph - N/A   Clear
8:35 PM 82.4 °F 85.4 °F 68.0 °F 62% 30.02 in 10.0 mi South 6.9 mph - N/A   Clear
8:56 PM 82.4 °F 85.4 °F 68.0 °F 62% 30.03 in 10.0 mi South 6.9 mph - N/A   Clear
9:15 PM 80.6 °F 83.2 °F 68.0 °F 65% 30.02 in 10.0 mi South 6.9 mph - N/A   Clear
9:35 PM 78.8 °F - 68.0 °F 69% 30.03 in 10.0 mi SSE 6.9 mph - N/A   Clear
9:55 PM 80.6 °F 83.2 °F 68.0 °F 65% 30.03 in 10.0 mi South 6.9 mph - N/A   Clear
10:15 PM 78.8 °F - 68.0 °F 69% 30.04 in 10.0 mi SSE 6.9 mph - N/A   Clear
10:35 PM 78.8 °F - 68.0 °F 69% 30.04 in 10.0 mi South 8.1 mph - N/A   Clear
10:55 PM 78.8 °F - 68.0 °F 69% 30.04 in 10.0 mi South 6.9 mph - N/A   Clear
11:16 PM 78.8 °F - 68.0 °F 69% 30.04 in 10.0 mi South 5.8 mph - N/A   Clear
11:35 PM 78.8 °F - 68.0 °F 69% 30.04 in 10.0 mi South 5.8 mph - N/A   Clear
11:55 PM 77.0 °F - 68.0 °F 74% 30.04 in 10.0 mi South 4.6 mph - N/A   Clear